[[{"header":{"parameterUnit":"m.s-1","parameterCategory":1,"la1":30.2991,"la2":30.254,"lo1":-89.0895,"lo2":-89.0444,"dx":0.0017,"dy":0.0017,"nx":28,"ny":28,"refTime":"2022-11-30T15:00:00:Z","depth":0,"parameterNumber":2,"parameterNumberName":"U-component_of_WINDS"},"data":[0,0,0,0,0,0,0,0,0,0,0,0,0,0,0,0,0,0,0,0,0,0,0,0,0,0,0,0,0,0,0,0,0,0,0,0,0,0,0,0,0,0,0,0,0,0,0,0,0,0,0,0,0,0,0,0,0,0,-4.5596,-4.5596,0,-4.5634,-4.5634,-4.5635,-4.5537,-4.5534,-4.5531,-4.5528,-4.557,-4.5574,-4.5578,0,0,0,0,0,0,0,0,0,0,0,0,0,-4.544,-4.5443,-4.5596,-4.5596,-4.5596,-4.5634,-4.5634,-4.5635,-4.5537,-4.5533,-4.553,-4.5526,-4.5568,-4.5573,-4.5578,0,0,0,0,0,0,0,0,0,0,0,0,0,-4.5496,-4.5444,-4.5595,-4.5552,-4.5549,-4.5634,-4.5634,-4.5635,-4.5538,-4.5533,-4.5529,-4.5524,-4.5567,-4.5573,-4.5579,-4.5708,0,0,-4.5597,-4.56,0,0,0,0,0,0,0,0,-4.5493,-4.5502,-4.5558,-4.5555,-4.5551,-4.5576,-4.5595,-4.566,-4.5539,-4.5542,-4.5528,-4.5522,-4.5576,-4.5581,-4.5598,-4.571,-4.5712,-4.5597,-4.5601,-4.5604,-4.5605,0,0,0,0,0,0,0,-4.5489,-4.55,-4.5611,-4.5559,-4.5555,-4.5532,-4.5534,-4.5607,-4.5585,-4.5542,-4.5534,-4.554,-4.5573,-4.5593,-4.5598,-4.5713,-4.5597,-4.5603,-4.5606,-4.5609,-4.5935,-4.594,0,0,0,0,0,0,-4.5491,-4.5497,-4.561,-4.5612,-4.551,-4.5538,-4.5541,-4.5573,-4.5583,-4.5581,-4.5544,-4.5536,-4.5585,-4.5592,-4.56,-4.5754,-4.5604,-4.5609,-4.5613,-4.593,-4.5936,-4.5941,0,0,0,0,0,0,-4.5488,-4.5501,-4.5608,-4.5553,-4.5564,-4.5546,-4.5582,-4.5576,-4.5595,-4.5585,-4.5581,-4.5568,-4.5581,-4.5591,-4.5682,-4.5754,-4.5612,-4.5617,-4.5924,-4.5932,-4.5939,-4.6062,0,0,0,0,0,0,-4.5484,-4.5501,-4.555,-4.5554,-4.5568,-4.569,-4.5586,-4.558,-4.5606,-4.5595,-4.5607,-4.5604,-4.5578,-4.5674,-4.5688,-4.5759,-4.5622,-4.5917,-4.5927,-4.5936,-4.6052,-4.6073,-4.6091,0,0,0,0,0,-4.5478,-4.5583,-4.5553,-4.5567,-4.5628,-4.5694,-4.5702,-4.5669,-4.5612,-4.5661,-4.5655,-4.5604,-4.5743,-4.5684,-4.5699,-4.5773,-4.5913,-4.5924,-4.5936,-4.6043,-4.6069,-4.6091,0,0,0,0,0,0,-4.5588,-4.5583,-4.5549,-4.5658,-4.5677,-4.5677,-4.5738,-4.5697,-4.5733,-4.5722,-4.568,-4.5684,-4.5783,-4.5787,-4.5721,-4.59,-4.5818,-4.5833,-4.5895,-4.5919,-4.5939,-4.5937,-4.5627,0,0,0,0,0,-4.5625,-4.5678,-4.5671,-4.5768,-4.5779,-4.5757,-4.5785,-4.5758,-4.5776,-4.5784,-4.5784,-4.5805,-4.5853,-4.5886,-4.593,-4.6051,-4.6053,-4.6109,-4.6129,-4.6145,-4.616,-4.6226,-4.6251,-4.5979,-4.5979,-4.5979,0,0,-4.5702,-4.5705,-4.5742,-4.579,-4.5802,-4.5859,-4.5765,-4.5829,-4.5872,-4.5794,-4.588,-4.5881,-4.5901,-4.6009,-4.6056,-4.6015,-4.6235,-4.616,-4.6173,-4.6179,-4.624,-4.6266,-4.6289,-4.5987,-4.5985,-4.5984,0,0,-4.5871,-4.5879,-4.5961,-4.5974,-4.5993,-4.5977,-4.5997,-4.6004,-4.6001,-4.6087,-4.603,-4.608,-4.6164,-4.6181,-4.6201,-4.6377,-4.6333,-4.6393,-4.6497,-4.6562,-4.6584,-4.6603,-4.6668,-4.6691,-4.6406,-4.6407,-4.6407,0,-4.5965,-4.6048,-4.6009,-4.6077,-4.6101,-4.6032,-4.6116,-4.6131,-4.6164,-4.6182,-4.6135,-4.6239,-4.6248,-4.6359,-4.6402,-4.642,-4.6443,-4.6392,-4.6584,-4.6602,-4.6619,-4.6681,-4.6705,-4.6414,-4.6413,-4.6412,-4.6412,0,-4.6163,-4.6222,-4.6286,-4.6319,-4.6349,-4.6425,-4.6399,-4.6435,-4.6405,-4.6395,-4.6484,-4.6492,-4.6537,-4.656,-4.6532,-4.6668,-4.6642,-4.659,-4.6508,-4.6653,-4.6711,-4.6734,-4.6425,-4.6422,-4.642,-4.6418,0,0,-4.6405,-4.6414,-4.6439,-4.6453,-4.6468,-4.6513,-4.6586,-4.6629,-4.6662,-4.6686,-4.6748,-4.682,-4.6772,-4.6795,-4.6767,-4.6824,-4.6966,-4.6765,-4.6765,-4.6804,-4.7119,-4.716,-4.7188,-4.6936,-4.694,-4.6943,-4.7118,0,-4.6574,-4.6699,-4.6666,-4.6791,-4.6846,-4.6781,-4.6845,-4.6862,-4.6855,-4.6901,-4.6892,-4.6945,-4.6877,-4.689,-4.6943,-4.6938,-4.7029,-4.6924,-4.6995,-4.6998,-4.6994,-4.7217,-4.726,-4.7425,-4.714,-4.7144,-4.7146,0,-4.6788,-4.682,-4.6951,-4.6958,-4.698,-4.7038,-4.7075,-4.7119,-4.7138,-4.7128,-4.7154,-4.7115,-4.7189,-4.7104,-4.7206,-4.7135,-4.7162,-4.7163,-4.7169,-4.7176,-4.7083,-4.7233,-4.7476,-4.7502,-4.7181,-4.7178,-4.7175,0,-4.6954,-4.703,-4.7118,-4.7132,-4.7142,-4.7185,-4.7191,-4.7204,-4.7233,-4.7265,-4.7284,-4.7325,-4.7348,-4.7381,-4.7356,-4.7296,-4.7462,-4.7375,-4.7459,-4.746,-4.7498,-4.7497,-4.7752,-4.7512,-4.7512,-4.7511,-4.7511,0,-4.7148,-4.7231,-4.7193,-4.7248,-4.7339,-4.7301,-4.7393,-4.7391,-4.7404,-4.7458,-4.7404,-4.7456,-4.7418,-4.7467,-4.7447,-4.7536,-4.7546,-4.7542,-4.7537,-4.7549,-4.755,-4.7567,-4.7556,-4.7518,-4.7516,-4.7515,-4.7514,0,-4.735,-4.7327,-4.742,-4.7421,-4.7423,-4.7491,-4.7493,-4.7544,-4.7532,-4.7602,-4.7616,-4.7598,-4.7653,-4.763,-4.7689,-4.7675,-4.779,-4.7767,-4.7784,-4.7779,-4.7865,-4.7858,-4.8143,-4.8179,-4.7913,-4.7916,-4.7918,0,-4.7476,-4.7538,-4.7546,-4.7578,-4.7588,-4.764,-4.7669,-4.7633,-4.7665,-4.7691,-4.774,-4.779,-4.7829,-4.792,-4.7913,-4.7958,-4.7938,-4.8035,-4.7945,-4.7956,-4.7943,-4.794,-4.7947,-4.8054,-4.8057,-4.8059,-4.8061,0,-4.7704,-4.7689,-4.7732,-4.7772,-4.7807,-4.7837,-4.7861,-4.7891,-4.7856,-4.7895,-4.7951,-4.7981,-4.804,-4.8092,-4.8132,-4.8139,-4.8096,-4.8089,-4.8112,-4.8126,-4.8134,-4.8133,-4.7836,-4.8084,-4.8081,-4.808,-4.8079,-4.8078,-4.7873,-4.7926,-4.794,-4.799,-4.8005,-4.8029,-4.8078,-4.8072,-4.8117,-4.8163,-4.8138,-4.8204,-4.8221,-4.827,-4.8283,-4.8334,-4.8297,-4.8328,-4.8337,-4.8346,-4.8358,-4.8123,-4.8341,-4.8341,-4.834,-4.8339,-4.8339,0,-4.81,-4.8105,-4.8151,-4.8188,-4.8228,-4.8181,-4.8206,-4.8243,-4.8301,-4.832,-4.8359,-4.8424,-4.8473,-4.847,-4.8516,-4.8558,-4.854,-4.8572,-4.857,-4.8572,-4.8388,-4.8366,-4.8586,-4.8586,-4.8586,-4.8586,-4.8586,-4.8586,-4.8223,-4.8311,-4.8298,-4.8393,-4.8398,-4.8461,-4.848,-4.8503,-4.8518,-4.8592,-4.8633,-4.863,-4.8641,-4.8687,-4.8731,-4.8729,-4.875,-4.879,-4.8781,-4.8609,-4.8585,-4.8562,-4.854,-4.8794,-4.8794,-4.8961,-4.8962,-4.8964]},{"header":{"parameterUnit":"m.s-1","parameterCategory":1,"la1":30.2991,"la2":30.254,"lo1":-89.0895,"lo2":-89.0444,"dx":0.0017,"dy":0.0017,"nx":28,"ny":28,"refTime":"2022-11-30T15:00:00:Z","depth":0,"parameterNumber":3,"parameterNumberName":"V-component_of_WINDS"},"data":[0,0,0,0,0,0,0,0,0,0,0,0,0,0,0,0,0,0,0,0,0,0,0,0,0,0,0,0,0,0,0,0,0,0,0,0,0,0,0,0,0,0,0,0,0,0,0,0,0,0,0,0,0,0,0,0,0,0,-3.6001,-3.6001,0,-3.6013,-3.6013,-3.6013,-3.5963,-3.5962,-3.596,-3.5959,-3.597,-3.5972,-3.5973,0,0,0,0,0,0,0,0,0,0,0,0,0,-3.5933,-3.5934,-3.6001,-3.6001,-3.6001,-3.6013,-3.6013,-3.6013,-3.5964,-3.5962,-3.596,-3.5958,-3.597,-3.5972,-3.5974,0,0,0,0,0,0,0,0,0,0,0,0,0,-3.5955,-3.5935,-3.6001,-3.5978,-3.5976,-3.6013,-3.6013,-3.6013,-3.5964,-3.5962,-3.596,-3.5957,-3.5969,-3.5971,-3.5974,-3.6033,0,0,-3.5982,-3.5983,0,0,0,0,0,0,0,0,-3.5954,-3.5958,-3.5981,-3.598,-3.5977,-3.5984,-3.5993,-3.602,-3.5964,-3.5968,-3.5959,-3.5956,-3.5977,-3.5978,-3.5985,-3.6034,-3.6034,-3.5982,-3.5983,-3.5984,-3.5985,0,0,0,0,0,0,0,-3.5953,-3.5957,-3.6006,-3.5981,-3.5979,-3.5966,-3.5967,-3.5998,-3.5985,-3.5968,-3.5964,-3.5967,-3.5975,-3.5983,-3.5985,-3.6035,-3.5982,-3.5984,-3.5985,-3.5986,-3.6132,-3.6134,0,0,0,0,0,0,-3.5954,-3.5956,-3.6005,-3.6006,-3.596,-3.5969,-3.597,-3.5984,-3.5984,-3.5982,-3.5968,-3.5964,-3.598,-3.5982,-3.5986,-3.6055,-3.5984,-3.5987,-3.5988,-3.613,-3.6133,-3.6135,0,0,0,0,0,0,-3.5953,-3.5959,-3.6005,-3.598,-3.5985,-3.5973,-3.5989,-3.5986,-3.5994,-3.5985,-3.5982,-3.5979,-3.5978,-3.5982,-3.6022,-3.6055,-3.5988,-3.599,-3.6127,-3.6131,-3.6134,-3.6195,0,0,0,0,0,0,-3.5951,-3.5959,-3.5982,-3.5981,-3.5987,-3.6042,-3.5991,-3.5988,-3.5998,-3.5993,-3.5994,-3.5992,-3.5977,-3.6018,-3.6024,-3.6057,-3.5992,-3.6124,-3.6128,-3.6133,-3.619,-3.62,-3.6209,0,0,0,0,0,-3.5949,-3.5999,-3.5984,-3.599,-3.6015,-3.6044,-3.6047,-3.6029,-3.6001,-3.6024,-3.6018,-3.5992,-3.605,-3.6023,-3.6029,-3.6063,-3.6122,-3.6127,-3.6132,-3.6186,-3.6198,-3.6209,0,0,0,0,0,0,-3.6004,-3.5998,-3.5981,-3.6032,-3.6039,-3.6035,-3.6063,-3.6043,-3.6057,-3.6051,-3.6028,-3.6028,-3.6072,-3.6071,-3.6041,-3.612,-3.6081,-3.6088,-3.612,-3.6131,-3.6141,-3.614,-3.5994,0,0,0,0,0,-3.6022,-3.6046,-3.6039,-3.6085,-3.6089,-3.6076,-3.6088,-3.6073,-3.6079,-3.6081,-3.6078,-3.6085,-3.6104,-3.6117,-3.6135,-3.6189,-3.6189,-3.6216,-3.6225,-3.6233,-3.6239,-3.6268,-3.628,-3.6153,-3.6153,-3.6152,0,0,-3.6059,-3.6059,-3.6076,-3.6096,-3.6099,-3.6124,-3.6079,-3.6107,-3.6125,-3.6085,-3.6123,-3.6121,-3.6126,-3.6174,-3.6194,-3.6174,-3.6274,-3.624,-3.6246,-3.6248,-3.6274,-3.6286,-3.6297,-3.6156,-3.6156,-3.6155,0,0,-3.614,-3.6142,-3.618,-3.6185,-3.6191,-3.6181,-3.6191,-3.619,-3.6187,-3.6225,-3.6195,-3.6216,-3.6251,-3.6256,-3.6263,-3.6345,-3.6321,-3.6351,-3.6401,-3.6429,-3.6439,-3.6447,-3.6477,-3.6488,-3.6357,-3.6357,-3.6357,0,-3.6185,-3.6223,-3.6202,-3.6233,-3.6243,-3.6208,-3.6246,-3.6251,-3.6262,-3.6269,-3.6247,-3.6289,-3.629,-3.6338,-3.6358,-3.6365,-3.6374,-3.6351,-3.6439,-3.6447,-3.6455,-3.6483,-3.6494,-3.6361,-3.6361,-3.636,-3.636,0,-3.6278,-3.6304,-3.6334,-3.6346,-3.6359,-3.6393,-3.6378,-3.6393,-3.6377,-3.637,-3.6408,-3.6408,-3.6425,-3.6435,-3.642,-3.6481,-3.6469,-3.6443,-3.6403,-3.6471,-3.6497,-3.6507,-3.6366,-3.6365,-3.6364,-3.6363,0,0,-3.6394,-3.6395,-3.6406,-3.6411,-3.6414,-3.6434,-3.6466,-3.6483,-3.6496,-3.6505,-3.6531,-3.6561,-3.6537,-3.6545,-3.653,-3.6555,-3.662,-3.6526,-3.6525,-3.6543,-3.6687,-3.6706,-3.6719,-3.6604,-3.6606,-3.6607,-3.6686,0,-3.6474,-3.6529,-3.6512,-3.6568,-3.6592,-3.6559,-3.6586,-3.6592,-3.6586,-3.6604,-3.6597,-3.6619,-3.6586,-3.659,-3.6613,-3.6607,-3.6648,-3.6601,-3.6628,-3.6629,-3.6628,-3.6732,-3.6753,-3.6828,-3.6696,-3.6698,-3.6699,0,-3.6574,-3.6587,-3.6646,-3.6645,-3.6654,-3.668,-3.6694,-3.6712,-3.6717,-3.671,-3.672,-3.6699,-3.673,-3.669,-3.6732,-3.67,-3.671,-3.6709,-3.6711,-3.6713,-3.6669,-3.6737,-3.6851,-3.6862,-3.6715,-3.6713,-3.6712,0,-3.6653,-3.6685,-3.6724,-3.6729,-3.6729,-3.6748,-3.6749,-3.6752,-3.6763,-3.6774,-3.6781,-3.6796,-3.6805,-3.6817,-3.6801,-3.6773,-3.6845,-3.6804,-3.6841,-3.6842,-3.6858,-3.6857,-3.6975,-3.6864,-3.6864,-3.6864,-3.6864,0,-3.6744,-3.6781,-3.676,-3.6784,-3.6824,-3.6803,-3.6844,-3.6841,-3.6843,-3.6866,-3.6838,-3.6859,-3.6837,-3.6856,-3.6844,-3.688,-3.6884,-3.688,-3.6876,-3.6883,-3.6884,-3.6889,-3.6884,-3.6867,-3.6866,-3.6865,-3.6865,0,-3.6839,-3.6826,-3.6867,-3.6863,-3.6863,-3.6893,-3.689,-3.6912,-3.6904,-3.6933,-3.6939,-3.6926,-3.6947,-3.6932,-3.6954,-3.6945,-3.6993,-3.6982,-3.6992,-3.6989,-3.7027,-3.7024,-3.7153,-3.7169,-3.7048,-3.7049,-3.705,0,-3.6898,-3.6926,-3.6925,-3.6939,-3.6942,-3.6963,-3.6974,-3.6955,-3.6967,-3.6975,-3.6996,-3.7015,-3.7029,-3.7064,-3.7057,-3.7073,-3.7062,-3.7106,-3.7064,-3.707,-3.7063,-3.7061,-3.7064,-3.7115,-3.7116,-3.7117,-3.7118,0,-3.7004,-3.6996,-3.7013,-3.7029,-3.7043,-3.7054,-3.7063,-3.7075,-3.7055,-3.707,-3.7092,-3.7103,-3.7125,-3.7144,-3.7157,-3.7157,-3.7135,-3.7131,-3.7141,-3.7148,-3.7153,-3.7151,-3.7016,-3.7129,-3.7128,-3.7127,-3.7126,-3.7126,-3.7083,-3.7106,-3.7109,-3.7129,-3.7134,-3.7142,-3.7163,-3.7157,-3.7175,-3.7192,-3.7178,-3.7204,-3.7208,-3.7223,-3.7226,-3.7246,-3.7228,-3.7241,-3.7245,-3.7249,-3.7254,-3.7149,-3.7248,-3.7248,-3.7247,-3.7247,-3.7247,0,-3.7187,-3.7188,-3.7206,-3.722,-3.7235,-3.7213,-3.7221,-3.7235,-3.7259,-3.7264,-3.7279,-3.7303,-3.7322,-3.7315,-3.7331,-3.7348,-3.7338,-3.7353,-3.7352,-3.7352,-3.7269,-3.726,-3.7361,-3.7361,-3.7361,-3.7361,-3.7361,-3.7361,-3.7243,-3.7281,-3.7274,-3.7313,-3.7313,-3.7339,-3.7345,-3.7353,-3.7357,-3.7386,-3.7401,-3.7397,-3.7398,-3.7414,-3.7429,-3.7427,-3.7434,-3.7453,-3.7447,-3.737,-3.7358,-3.7348,-3.7338,-3.7455,-3.7455,-3.7529,-3.7529,-3.753]}]]